EZY990 EGGP-EGCC

Flight info

Callsign EZY990
Flight time 0h 9m
Altitude 4000
Route POL5V POL DCT MCT DCT
Aircraft A319/M-SDE3FGHIRWY/LB1

Departure

Time 2026-05-06 07:32
Airport Liverpool John Lennon Airport (EGGP)

Arrival

Time 2026-05-06 07:41
Airport Manchester Airport (EGCC)
Time Latitude Longitude Altitude Speed Heading
2026-05-06 07:31 53.33311 -2.86065 94 ft 0 kts 84°
2026-05-06 07:32 53.33319 -2.85908 96 ft 52 kts 85°
2026-05-06 07:32 53.33371 -2.84771 95 ft 139 kts 85°
2026-05-06 07:32 53.33441 -2.82985 605 ft 168 kts 86°
2026-05-06 07:32 53.33538 -2.81098 1315 ft 158 kts 83°
2026-05-06 07:33 53.33666 -2.79307 2066 ft 154 kts 85°
2026-05-06 07:33 53.33581 -2.77438 2592 ft 179 kts 109°
2026-05-06 07:33 53.32845 -2.75392 2599 ft 232 kts 126°
2026-05-06 07:33 53.31781 -2.73293 2492 ft 244 kts 130°
2026-05-06 07:34 53.30629 -2.71184 2493 ft 242 kts 130°
2026-05-06 07:34 53.29540 -2.69179 2495 ft 224 kts 129°
2026-05-06 07:34 53.28542 -2.67292 2501 ft 208 kts 129°
2026-05-06 07:34 53.27633 -2.65528 2499 ft 194 kts 128°
2026-05-06 07:35 53.26790 -2.63864 2498 ft 182 kts 127°
2026-05-06 07:35 53.25990 -2.62266 2498 ft 177 kts 127°
2026-05-06 07:35 53.25207 -2.60690 2500 ft 176 kts 127°
2026-05-06 07:35 53.24429 -2.59119 2502 ft 175 kts 127°
2026-05-06 07:36 53.23664 -2.57567 2507 ft 175 kts 127°
2026-05-06 07:36 53.23065 -2.55797 2506 ft 173 kts 107°
2026-05-06 07:36 53.22899 -2.53869 2509 ft 169 kts 84°
2026-05-06 07:36 53.23164 -2.51977 2505 ft 167 kts 65°
2026-05-06 07:37 53.23808 -2.50367 2506 ft 168 kts 52°
2026-05-06 07:37 53.24551 -2.48848 2505 ft 169 kts 52°
2026-05-06 07:37 53.25265 -2.47388 2527 ft 155 kts 52°
2026-05-06 07:37 53.25921 -2.46044 2464 ft 145 kts 52°
2026-05-06 07:38 53.26543 -2.44767 2324 ft 139 kts 52°
2026-05-06 07:38 53.27141 -2.43538 2166 ft 135 kts 51°
2026-05-06 07:38 53.27726 -2.42337 1988 ft 131 kts 51°
2026-05-06 07:38 53.28292 -2.41174 1817 ft 127 kts 52°
2026-05-06 07:39 53.28848 -2.40031 1644 ft 126 kts 52°
2026-05-06 07:39 53.29387 -2.38922 1475 ft 120 kts 51°
2026-05-06 07:39 53.29909 -2.37846 1308 ft 118 kts 52°
2026-05-06 07:39 53.30430 -2.36773 1123 ft 119 kts 51°
2026-05-06 07:40 53.30947 -2.35709 950 ft 119 kts 51°
2026-05-06 07:40 53.31467 -2.34636 783 ft 121 kts 51°
2026-05-06 07:40 53.31995 -2.33549 628 ft 120 kts 51°
2026-05-06 07:40 53.32521 -2.32463 452 ft 120 kts 51°
2026-05-06 07:41 53.33045 -2.31382 293 ft 118 kts 51°
2026-05-06 07:41 53.33533 -2.30371 229 ft 98 kts 51°
2026-05-06 07:41 53.33859 -2.29694 226 ft 55 kts 50°
2026-05-06 07:41 53.34056 -2.29291 231 ft 39 kts 51°
2026-05-06 07:42 53.34226 -2.28948 228 ft 39 kts 50°
2026-05-06 07:42 53.34389 -2.28641 225 ft 27 kts 37°
2026-05-06 07:42 53.34543 -2.28513 228 ft 27 kts 21°
2026-05-06 07:42 53.34717 -2.28384 230 ft 28 kts 37°
2026-05-06 07:43 53.34834 -2.28149 231 ft 25 kts 51°
2026-05-06 07:43 53.34962 -2.27879 231 ft 37 kts 52°
2026-05-06 07:43 53.35080 -2.27624 234 ft 45 kts 47°
2026-05-06 07:43 53.35260 -2.27263 239 ft 28 kts 51°
2026-05-06 07:44 53.35411 -2.27240 246 ft 23 kts 323°
2026-05-06 07:44 53.35534 -2.27408 247 ft 24 kts 322°
2026-05-06 07:44 53.35655 -2.27555 247 ft 16 kts 351°
2026-05-06 07:44 53.35715 -2.27473 254 ft 9 kts 51°
2026-05-06 07:45 53.35784 -2.27332 255 ft 18 kts 40°
2026-05-06 07:45 53.35836 -2.27375 255 ft 10 kts 286°
2026-05-06 07:45 53.35842 -2.27410 255 ft 0 kts 285°